HORS 3 (RS81S)

Last updated on Mon Sep 15 2025 00:03:09 GMT+0000 (Coordinated Universal Time)

1 61753U 24199U 25257.25296348 .00014026 00000+0 38989-3 0 9999 2 61753 97.3377 125.6889 0009052 192.7972 167.3044 15.36929236 94938
UTC large
Height (km)
Speed (km/s)
/
Latitude / Longitude
Inclination (degrees)
Orbital Period (minutes)
Azimuth
Elevation
Range (km)
Doppler Factor

Next 0 passes for location: London (51.5072 / 0.1276)

Sorry there are no passes over London.